Regional Weather Roundup
Issued by NWS Green Bay, WI

Home | Current Version | Previous Version | Text Only | Print | Product List | Glossary On
Versions: 1 2 3 4 5 6 7 8 9 10 11 12 13 14 15 16 17 18 19 20 21 22 23 24 25 26 27 28 29 30 31 32 33 34 35 36 37 38 39 40 41 42 43 44 45 46 47 48 49 50
000
ASUS43 KGRB 061211
RWRGRB

NORTH-CENTRAL AND NORTHEAST WISCONSIN REGIONAL WEATHER ROUNDUP
NATIONAL WEATHER SERVICE GREEN BAY WI
700 AM CDT MON JUL 06 2015

WIZ005-009-010>012-018-019-061300-
NORTH CENTRAL WISCONSIN

CITY           SKY/WX    TMP DP  RH WIND       PRES   REMARKS
IRONWOOD       CLOUDY    66  66 100 CALM      29.84R
MANITOWISH WTR RAIN      66  66 100 S6        29.88F
ARBOR VITAE    LGT RAIN  67  65  92 SW5       29.89S
EAGLE RIVER    CLOUDY    68  63  83 SW5       29.89F HAZE
LAND O LAKES   CLOUDY    69  64  86 SW5       29.90S HAZE
RHINELANDER    CLOUDY    68  64  87 SW6       29.90F
PHILLIPS       RAIN      66  66 100 CALM      29.85F
ANTIGO         CLOUDY    64  63  98 S6        29.91S FOG
TOMAHAWK       CLOUDY    66  63  90 CALM      29.89F FOG
MERRILL        CLOUDY    68  66  93 SE3       29.88F FOG
$$

WIZ013-073-061300-
NORTHEAST WISCONSIN

CITY           SKY/WX    TMP DP  RH WIND       PRES   REMARKS
IRON MOUNTAIN  CLOUDY    66  63  90 S7        29.89S FOG
MARINETTE      CLOUDY    70  63  78 S5        29.91F
OCONTO         CLOUDY    67  67 100 S3        29.91F
$$

WIZ017-030-035>037-045-061300-
CENTRAL WISCONSIN

CITY           SKY/WX    TMP DP  RH WIND       PRES   REMARKS
MEDFORD        CLOUDY    66  64  94 CALM      29.88S
WAUSAU         CLOUDY    67  64  90 SE7       29.86F FOG
MOSINEE        MOSUNNY   66  64  94 SE3       29.88F FOG
MARSHFIELD     CLOUDY    69  63  81 S13       29.85F HAZE
WISC RAPIDS    CLOUDY    68  63  84 S6        29.87F
STEVENS POINT  CLOUDY    66  63  89 S6        29.88F FOG
WAUPACA        CLOUDY    68  67  95 SE7       29.90F FOG
SHAWANO        CLOUDY    68  64  86 S5        29.90F
CLINTONVILLE   CLOUDY    64  63  94 S6        29.89F FOG
$$

WIZ038-039-048-051-061300-
FOX VALLEY

CITY           SKY/WX    TMP DP  RH WIND       PRES   REMARKS
NWS GREEN BAY  CLOUDY    67  64  90 SE7       29.92F FOG
APPLETON       PTSUNNY   68  63  83 SW8       29.93F
OSHKOSH        CLOUDY    68  63  84 S9        29.91F HAZE
FOND DU LAC    CLOUDY    71  64  78 S9        29.93F
$$

WIZ022-050-052-061300-
EAST CENTRAL WISCONSIN

CITY           SKY/WX    TMP DP  RH WIND       PRES   REMARKS
STURGEON BAY   CLOUDY    64  59  82 S9        29.96F
MANITOWOC      PTSUNNY   66  63  90 MISG      29.96S FOG
SHEBOYGAN      PTSUNNY   64  61  90 CALM      29.96S FOG
$$

LMZ563-521-522-541>543-061300-
LAKESHORE

STATION/POSITION TIME  TEMP    WIND        PRES    VSBY  WAVE
                       AIR SEA DIR/SP/G                  HT/PER
                 (UTC) (F)     (DEG/KT/KT) (MB)    (MI)  (FT/S)
SHEBOYGAN LKSHOR 1200   61     170/ 14/ 15 1014.6F
KEWAUNEE LKSHORE 1100   64     180/  8/  8 1013.5R
NORTHPORT PIER   1100   64     140/  7/  9 1013.9R
N MID LAKE BUOY  1150   58 55  200/ 14/ 17 1013.7F         3/ 4
SISTER BAY LKSHO 1129   66     170/ 11/ 12   N/A
STURGEON BAY CG  1145   57     180/ 10     1014.1   1 1/4  1
CHAMBERS ISLAND  1100   69     170/  5/ 10 1013.5R
MENOMINEE LKSHOR 1100   70     190/  5/  8 1014.0R
$$


USA.gov is the U.S. government's official web portal to all federal, state and local government web resources and services.